Imperial, NE

8:01 PM MDT on August 23, 2017 (GMT -0600)
Imperial Municipal

Weather History for KIML - December, 2012

Change the Weather History Date:

Thursday, December 13, 2012

  Actual Average Record
Temperature  
Mean Temperature 39 °F 28 °F  
Max Temperature 54 °F 41 °F 72 °F (1921)
Min Temperature 24 °F 16 °F -18 °F (1919)
Degree Days  
Heating Degree Days 26 37  
Month to date heating degree days 364 461  
Cooling Degree Days 0 0  
Month to date cooling degree days 0 0  
Year to date cooling degree days 1382 963  
Moisture  
Dew Point 15 °F    
Average Humidity 42    
Maximum Humidity 60    
Minimum Humidity 24    
Precipitation  
Precipitation 0.00 in 0.01 in 0.39 in (1984)
Sea Level Pressure  
Sea Level Pressure 30.03 in    
Wind  
Wind Speed 5 mph (SSW)    
Max Wind Speed 12 mph    
Max Gust Speed 14 mph    
Visibility 10 miles    
Events      
T = Trace of Precipitation, MM = Missing Value Source: NWS Daily Summary

Daily Weather History Graph

Daily Weather History Graph

Search for Another Location

Airport or City:

Trip Planner

Search our weather history database for the weather conditions in past years. The results will help you decide how hot, cold, wet, or windy it might be!

Date:

Astronomy

Dec. 13, 2012 Rise Set
Actual Time 7:01 AM MST 4:20 PM MST
Civil Twilight 6:30 AM MST 4:51 PM MST
Nautical Twilight 5:56 AM MST 5:25 PM MST
Astronomical Twilight 5:23 AM MST 5:58 PM MST
Moon 7:12 AM MST (12/13) 5:05 PM MST (12/13)
Length of Visible Light 10h 20m
Length of Day
9h 18m
New Moon, 0% of the Moon is Illuminated
Dec 13
New Moon
Dec 19
First Quarter
Dec 28
Full
Jan 4
Last Quarter
Jan 11
New

Hourly Weather History & Observations

Time (MST) Temp. Windchill Dew Point Humidity Pressure Visibility Wind Dir Wind Speed Gust Speed Precip Events Conditions
12:53 AM 28.0 °F - 10.9 °F 49% 29.92 in 10.0 mi Calm Calm - N/A   Clear
1:53 AM 27.0 °F 21.6 °F 12.0 °F 53% 29.94 in 10.0 mi WSW 4.6 mph - N/A   Clear
2:53 AM 27.0 °F 23.0 °F 12.0 °F 53% 29.97 in 10.0 mi WSW 3.5 mph - N/A   Clear
3:53 AM 26.1 °F 20.5 °F 12.0 °F 55% 29.98 in 10.0 mi WNW 4.6 mph - N/A   Clear
4:53 AM 26.1 °F 21.9 °F 12.0 °F 55% 30.02 in 10.0 mi WNW 3.5 mph - N/A   Clear
5:53 AM 24.1 °F - 12.0 °F 60% 30.06 in 10.0 mi Calm Calm - N/A   Clear
6:53 AM 27.0 °F 18.7 °F 12.0 °F 53% 30.07 in 10.0 mi WNW 8.1 mph - N/A   Clear
7:53 AM 28.9 °F 21.1 °F 14.0 °F 54% 30.11 in 10.0 mi West 8.1 mph - N/A   Clear
8:53 AM 33.1 °F 30.0 °F 15.1 °F 48% 30.12 in 10.0 mi WNW 3.5 mph - N/A   Clear
9:53 AM 37.9 °F 33.5 °F 17.1 °F 43% 30.14 in 9.0 mi West 5.8 mph - N/A   Clear
10:53 AM 46.0 °F 43.9 °F 17.1 °F 31% 30.10 in 10.0 mi WSW 4.6 mph - N/A   Clear
11:53 AM 51.1 °F - 17.1 °F 26% 30.06 in - Calm Calm - N/A   Clear
12:53 PM 53.1 °F - 18.0 °F 25% 30.03 in - Variable 3.5 mph - N/A   Clear
1:53 PM 54.0 °F - 18.0 °F 24% 30.02 in - ESE 6.9 mph - N/A   Clear
2:53 PM 54.0 °F - 18.0 °F 24% 30.00 in - SSE 9.2 mph - N/A   Clear
4:53 PM 37.9 °F 34.4 °F 15.1 °F 39% 30.04 in 10.0 mi ESE 4.6 mph - N/A   Clear
5:53 PM 35.6 °F 29.9 °F 15.8 °F 44% 29.97 in 10.0 mi SE 6.9 mph - N/A   Clear
6:53 PM 30.9 °F 23.5 °F 15.1 °F 52% 30.06 in 8.0 mi SSE 8.1 mph - N/A   Clear
7:53 PM 28.9 °F 20.4 °F 14.0 °F 54% 30.05 in 10.0 mi SE 9.2 mph - N/A   Clear
8:53 PM 28.0 °F 20.8 °F 14.0 °F 56% 30.04 in 10.0 mi SE 6.9 mph - N/A   Clear
9:53 PM 28.9 °F 22.8 °F 15.1 °F 56% 30.02 in 10.0 mi SE 5.8 mph - N/A   Clear
10:53 PM 30.2 °F 26.7 °F 15.8 °F 55% 29.95 in 10.0 mi SE 3.5 mph - N/A   Clear
11:53 PM 24.1 °F 16.0 °F 14.0 °F 65% 29.97 in 10.0 mi SSE 6.9 mph - N/A   Clear